LS3C (56214 NORAD) Tracking and Keplerian Element Data

This shows tracking and keplerian element data for the satellite.

Feedback or suggestion? Click here.




ElementValue
Catalog56214
NameLS3C
Epoch Orbit393
Epoch Day127.13347985
Epoch Year2023
RAAN22.6985
Inclination97.4083
Eccentricity0.0016378
Argument of Perigee145.3587
Mean Anonmoly214.8721
Mean Motion15.23674947
Decay Rate0.00018257
L11 56214U 23054AN 23127.13347985 .00018257 00000+0 76006-3 0 9991
L22 56214 97.4083 22.6985 0016378 145.3587 214.8721 15.23674947 3939



Live tracking and technical data element details for LS3C (NORAD 56214). LS3C can be tracked NOW for your location showing map with azimuth and elevation plus other details from your city location.







IsCatalogInMostPopularTable: catalog: 56214, numindb: 8
Update: records affected: 1



GetName: 56214 LS3C

Hit Count: updated at: Wed, 07 Jun 2023 08:16:39 GMT